Weather History for Myrtle Beach, SC

Change the Weather History Date:

Monday, October 22, 2012

  Actual Average Record
Temperature  
Mean Temperature 58 °F -  
Max Temperature 71 °F 70 °F 84 °F (2005)
Min Temperature 44 °F 51 °F 34 °F (1952)
Degree Days  
Heating Degree Days 8    
Growing Degree Days 8 (Base 50)    
Moisture  
Dew Point 47 °F    
Average Humidity 82    
Maximum Humidity 100    
Minimum Humidity 38    
Precipitation  
Precipitation 0.00 in - - ()
Sea Level Pressure  
Sea Level Pressure 30.17 in    
Wind  
Wind Speed 2 mph (NE)    
Max Wind Speed 10 mph    
Max Gust Speed -    
Visibility 10 miles    
Events      
Averages and records for this station are not official NWS values.
T = Trace of Precipitation, MM = Missing Value Source: NWS Daily Summary

Daily Weather History Graph

Daily Weather History Graph

Search for Another Location

Airport:

Trip Planner

Search our weather history database for the weather conditions in past years. The results will help you decide how hot, cold, wet, or windy it might be!

Date:

Astronomy

Oct. 22, 2012 Rise Set
Actual Time 7:26 AM EDT 6:33 PM EDT
Civil Twilight 7:01 AM EDT 6:58 PM EDT
Nautical Twilight 6:32 AM EDT 7:27 PM EDT
Astronomical Twilight 6:03 AM EDT 7:56 PM EDT
Moon 2:22 PM EDT (10/22) 12:31 AM EDT (10/22)
Length of Visible Light 11h 57m
Length of Day
11h 06m
First Quarter, 56% of the Moon is Illuminated
Oct 22
First Quarter
Oct 29
Full
Nov 6
Last Quarter
Nov 13
New
Nov 20
First Quarter

Hourly Weather History & Observations

Time (EDT) Temp. Windchill Dew Point Humidity Pressure Visibility Wind Dir Wind Speed Gust Speed Precip Events Conditions
12:15 AM 48.2 °F - 46.4 °F 93% 30.16 in 10.0 mi Calm Calm - N/A   Clear
12:35 AM 48.2 °F - 46.4 °F 93% 30.15 in 10.0 mi Calm Calm - N/A   Clear
12:55 AM 48.2 °F - 46.4 °F 93% 30.15 in 10.0 mi Calm Calm - N/A   Clear
1:15 AM 48.2 °F - 46.4 °F 93% 30.15 in 10.0 mi Calm Calm - N/A   Clear
1:35 AM 46.4 °F - 44.6 °F 93% 30.16 in 10.0 mi Calm Calm - N/A   Clear
1:55 AM 46.4 °F - 44.6 °F 93% 30.15 in 10.0 mi Calm Calm - N/A   Clear
2:15 AM 46.4 °F - 46.4 °F 100% 30.15 in 10.0 mi Calm Calm - N/A   Clear
2:35 AM 48.2 °F - 46.4 °F 93% 30.16 in 10.0 mi Calm Calm - N/A   Clear
2:55 AM 46.4 °F - 46.4 °F 100% 30.16 in 10.0 mi Calm Calm - N/A   Clear
3:15 AM 46.4 °F - 46.4 °F 100% 30.16 in 10.0 mi Calm Calm - N/A   Clear
3:35 AM 46.4 °F - 44.6 °F 93% 30.15 in 10.0 mi Calm Calm - N/A   Clear
3:55 AM 46.4 °F - 44.6 °F 93% 30.15 in 10.0 mi Calm Calm - N/A   Clear
4:15 AM 46.4 °F - 44.6 °F 93% 30.15 in 10.0 mi Calm Calm - N/A   Clear
4:35 AM 44.6 °F - 44.6 °F 100% 30.15 in 10.0 mi Calm Calm - N/A   Clear
4:55 AM 44.6 °F - 44.6 °F 100% 30.15 in 10.0 mi Calm Calm - N/A   Clear
5:15 AM 46.4 °F 44.3 °F 44.6 °F 93% 30.15 in 10.0 mi North 4.6 mph - N/A   Clear
5:35 AM 44.6 °F 43.1 °F 44.6 °F 100% 30.16 in 10.0 mi North 3.5 mph - N/A   Clear
5:50 AM 46.4 °F 42.9 °F 44.6 °F 93% 30.17 in 10.0 mi North 6.9 mph - N/A   Clear
6:45 AM 44.6 °F 40.7 °F 42.8 °F 93% 30.18 in 10.0 mi North 6.9 mph - N/A   Clear
7:45 AM 46.4 °F 42.4 °F 42.8 °F 87% 30.20 in 10.0 mi North 8.1 mph - N/A   Clear
8:50 AM 53.6 °F - 46.4 °F 77% 30.23 in 10.0 mi North 8.1 mph - N/A   Clear
10:45 AM 66.2 °F - 46.4 °F 49% 30.24 in 10.0 mi NE 8.1 mph - N/A   Clear
11:50 AM 69.8 °F - 46.4 °F 43% 30.23 in 10.0 mi NE 9.2 mph - N/A   Clear
12:45 PM 69.8 °F - 46.4 °F 43% 30.22 in 10.0 mi ESE 6.9 mph - N/A   Clear
1:50 PM 71.6 °F - 44.6 °F 38% 30.18 in 10.0 mi ESE 10.4 mph - N/A   Clear
2:50 PM 69.8 °F - 46.4 °F 43% 30.17 in 10.0 mi SE 8.1 mph - N/A   Clear
3:50 PM 69.8 °F - 46.4 °F 43% 30.16 in 10.0 mi SE 9.2 mph - N/A   Clear
4:45 PM 69.8 °F - 48.2 °F 46% 30.15 in 10.0 mi South 9.2 mph - N/A   Clear
5:45 PM 68.0 °F - 48.2 °F 49% 30.15 in 10.0 mi SSE 9.2 mph - N/A   Clear
7:50 PM 55.4 °F - 51.8 °F 88% 30.18 in 10.0 mi Calm Calm - N/A   Clear
8:50 PM 53.6 °F - 51.8 °F 94% 30.18 in 10.0 mi Calm Calm - N/A   Clear
9:50 PM 53.6 °F - 51.8 °F 94% 30.19 in 10.0 mi Calm Calm - N/A   Clear
11:15 PM 51.8 °F - 50.0 °F 94% 30.20 in 10.0 mi Calm Calm - N/A   Clear
11:35 PM 51.8 °F - 48.2 °F 88% 30.20 in 10.0 mi Calm Calm - N/A   Clear
11:55 PM 51.8 °F - 51.8 °F 100% 30.19 in 10.0 mi Calm Calm - N/A   Clear